Location: Fauquembergues
(50.6005°N, 2.0987°E)
Time: 08:17:50
(UTC+00:00)

USA 267 - Pass Details

Date: 14 July 2020
Orbit: 1102 x 1106 km, 123.0° (Epoch: 12 August)

Event Time Altitude Azimuth Distance (km) Brightness Sun altitude
Exits shadow 00:32:10 26° 184° (S) 2,008 4.0 -17.4°
Maximum altitude 00:34:53 36° 228° (SW) 1,665 3.8 -17.3°
Drops below altitude 10° 00:40:51 10° 293° (WNW) 2,965 5.7 -17.1°
Sets 00:43:35 0° 302° (WNW) 3,926 6.4 -17.1°
